This is the latest recevied weather packets stored in our database for station/object K9NZF-1. If no packets are shown the sender has not sent any weather packets the latest 10 day(s).
| Time | Temp. | Humidity | Pressure | Rain* | Wind** | Luminosity | Snow |
|---|---|---|---|---|---|---|---|
| 1778365507 | 22.22° C | 54% | 1006 hPa | 0 mm | - | 341 W/m² | - |
| 1778365447 | 22.22° C | 54% | 1006 hPa | 0 mm | - | 364 W/m² | - |
| 1778365386 | 22.22° C | 53% | 1005.9 hPa | 0 mm | - | 373 W/m² | - |
| 1778365328 | 22.22° C | 52% | 1005.9 hPa | 0 mm | - | 374 W/m² | - |
| 1778365268 | 22.22° C | 51% | 1005.9 hPa | 0 mm | - | 378 W/m² | - |
| 1778365207 | 22.22° C | 53% | 1005.9 hPa | 0 mm | - | 383 W/m² | - |
| 1778365146 | 22.22° C | 53% | 1005.9 hPa | 0 mm | - | 383 W/m² | - |
| 1778365087 | 22.22° C | 53% | 1005.9 hPa | 0 mm | - | 387 W/m² | - |
| 1778365025 | 22.22° C | 53% | 1005.9 hPa | 0 mm | - | 378 W/m² | - |
| 1778364967 | 22.22° C | 54% | 1005.9 hPa | 0 mm | - | 374 W/m² | - |
| 1778364907 | 22.22° C | 52% | 1005.9 hPa | 0 mm | - | 387 W/m² | - |
| 1778364847 | 22.22° C | 52% | 1005.9 hPa | 0 mm | - | 399 W/m² | - |
| 1778364786 | 22.22° C | 52% | 1005.7 hPa | 0 mm | - | 403 W/m² | - |
| 1778364729 | 22.22° C | 52% | 1005.6 hPa | 0 mm | - | 410 W/m² | - |
| 1778364666 | 22.22° C | 52% | 1005.6 hPa | 0 mm | - | 408 W/m² | - |
| 1778364608 | 22.22° C | 53% | 1005.6 hPa | 0 mm | - | 410 W/m² | - |
| 1778364557 | 22.22° C | 53% | 1005.6 hPa | 0 mm | - | 415 W/m² | - |
| 1778364487 | 22.22° C | 53% | 1005.5 hPa | 0 mm | - | 420 W/m² | - |
| 1778364429 | 22.22° C | 53% | 1005.5 hPa | 0 mm | - | 417 W/m² | - |
| 1778364365 | 22.22° C | 54% | 1005.6 hPa | 0 mm | - | 425 W/m² | - |
| 1778364304 | 22.22° C | 54% | 1005.6 hPa | 0 mm | - | 410 W/m² | - |
| 1778364244 | 22.22° C | 51% | 1005.6 hPa | 0 mm | - | 364 W/m² | - |
| 1778364180 | 22.22° C | 52% | 1005.7 hPa | 0 mm | - | 429 W/m² | - |
| 1778364122 | 22.22° C | 51% | 1005.6 hPa | 0 mm | - | 427 W/m² | - |
| 1778364058 | 22.22° C | 52% | 1005.6 hPa | 0 mm | - | 418 W/m² | - |
* Rain latest hour (hover to see other rain measurements)
** Current wind speed in m/s (hover to see current wind gust speed)